CW3996 Weather Reports


Display with metric or nautical units.
time (UTC)temp
F
wind
direction
speed
MPH
gust
MPH
rain 1hr
in
rain 24hr
in
rain mn
in
humidity
%
barometer
mb
20260510011727 72 319 7.0 14.0 0.00 0.00 0.00 1 1018.0
20260510011220 72 321 7.0 15.0 0.00 0.00 0.00 2 1018.0
20260510010714 72 325 9.0 15.0 0.00 0.00 0.00 1 1018.0
20260510010229 72 360 6.0 14.0 0.00 0.00 0.00 1 1018.0
20260510005723 73 322 8.0 17.0 0.00 0.00 0.00 1 1018.0
20260510005217 73 321 7.0 17.0 0.00 0.00 0.00 1 1018.0
20260510004735 73 312 6.0 15.0 0.00 0.00 0.00 1 1018.0
20260510004229 74 304 7.0 16.0 0.00 0.00 0.00 1 1018.0
20260510003722 74 290 10.0 16.0 0.00 0.00 0.00 1 1018.0
20260510003217 74 318 7.0 14.0 0.00 0.00 0.00 1 1017.9
20260510002730 74 323 6.0 17.0 0.00 0.00 0.00 1 1017.9
20260510002223 74 335 10.0 17.0 0.00 0.00 0.00 1 1017.9
20260510001716 74 315 7.0 15.0 0.00 0.00 0.00 1 1017.9
20260510001230 75 320 6.0 13.0 0.00 0.00 0.00 1 1017.9
20260510000728 75 318 7.0 13.0 0.00 0.00 0.00 1 1017.9
20260510000244 75 318 5.0 12.0 0.00 0.00 0.00 1 1017.9
20260509235736 75 317 6.0 12.0 0.00 0.00 0.00 1 1017.9
20260509235229 76 317 7.0 13.0 0.00 0.00 0.00 1 1017.8
20260509234722 76 311 8.0 13.0 0.00 0.00 0.00 1 1017.9
20260509234217 76 306 5.0 14.0 0.00 0.00 0.00 1 1017.8
20260509233730 76 302 6.0 14.0 0.00 0.00 0.00 1 1017.9
20260509233245 76 297 5.0 12.0 0.00 0.00 0.00 1 1017.9
20260509232716 76 301 7.0 16.0 0.00 0.00 0.00 1 1017.9
20260509232230 76 302 6.0 16.0 0.00 0.00 0.00 1 1017.9
20260509231723 75 290 8.0 16.0 0.00 0.00 0.00 1 1017.9
20260509231222 76 302 8.0 17.0 0.00 0.00 0.00 1 1018.0
20260509230715 76 305 7.0 17.0 0.00 0.00 0.00 1 1018.0
20260509230229 76 309 7.0 12.0 0.00 0.00 0.00 1 1018.1
20260509225723 77 311 7.0 15.0 0.00 0.00 0.00 1 1018.1
20260509225217 77 309 7.0 15.0 0.00 0.00 0.00 1 1018.1
20260509224731 76 318 4.0 13.0 0.00 0.00 0.00 1 1018.1
20260509224225 77 323 7.0 15.0 0.00 0.00 0.00 1 1018.1
20260509223739 77 319 9.0 15.0 0.00 0.00 0.00 1 1018.2
20260509223215 76 306 7.0 14.0 0.00 0.00 0.00 1 1018.2
20260509222729 77 317 6.0 14.0 0.00 0.00 0.00 1 1018.2
20260509222222 76 322 7.0 14.0 0.00 0.00 0.00 2 1018.2
20260509221715 76 319 10.0 14.0 0.00 0.00 0.00 1 1018.3
20260509221228 77 306 8.0 14.0 0.00 0.00 0.00 1 1018.3
20260509220721 77 305 7.0 14.0 0.00 0.00 0.00 1 1018.3
20260509220217 77 306 10.0 14.0 0.00 0.00 0.00 1 1018.3
20260509215714 76 313 2.0 17.0 0.00 0.00 0.00 1 1018.4
20260509215228 77 313 7.0 17.0 0.00 0.00 0.00 1 1018.5
20260509214723 77 312 10.0 17.0 0.00 0.00 0.00 1 1018.5
20260509214217 76 299 5.0 15.0 0.00 0.00 0.00 3 1018.5
20260509213731 77 298 8.0 15.0 0.00 0.00 0.00 1 1018.6
20260509213225 76 311 7.0 13.0 0.00 0.00 0.00 3 1018.6
20260509212719 75 298 6.0 15.0 0.00 0.00 0.00 1 1018.7
20260509212232 77 298 10.0 15.0 0.00 0.00 0.00 1 1018.8
20260509211746 76 317 8.0 14.0 0.00 0.00 0.00 3 1018.8
20260509211223 75 315 3.0 16.0 0.00 0.00 0.00 3 1018.8
20260509210717 76 316 7.0 16.0 0.00 0.00 0.00 1 1018.8
20260509210233 76 312 8.0 15.0 0.00 0.00 0.00 1 1018.8
20260509205726 76 322 7.0 13.0 0.00 0.00 0.00 4 1018.8
20260509205220 76 303 5.0 14.0 0.00 0.00 0.00 1 1018.9
20260509204715 77 297 7.0 14.0 0.00 0.00 0.00 1 1019.0
20260509204249 76 298 9.0 17.0 0.00 0.00 0.00 1 1019.0
20260509203722 75 308 6.0 17.0 0.00 0.00 0.00 1 1019.0
20260509203222 75 340 7.0 17.0 0.00 0.00 0.00 2 1019.0
20260509202716 75 329 6.0 12.0 0.00 0.00 0.00 4 1019.1
20260509202230 75 329 5.0 16.0 0.00 0.00 0.00 3 1019.2
20260509201724 76 328 8.0 16.0 0.00 0.00 0.00 2 1019.3
20260509201218 75 292 6.0 14.0 0.00 0.00 0.00 4 1019.3
20260509200732 75 323 7.0 14.0 0.00 0.00 0.00 3 1019.4
20260509200226 74 328 3.0 16.0 0.00 0.00 0.00 5 1019.4
20260509195719 74 327 9.0 18.0 0.00 0.00 0.00 5 1019.5
20260509195217 75 325 10.0 18.0 0.00 0.00 0.00 5 1019.4
20260509194731 75 302 7.0 15.0 0.00 0.00 0.00 3 1019.5
20260509194226 75 304 7.0 19.0 0.00 0.00 0.00 2 1019.5
20260509193719 75 305 10.0 19.0 0.00 0.00 0.00 3 1019.5
20260509193254 75 300 8.0 18.0 0.00 0.00 0.00 2 1019.6
20260509192726 75 300 10.0 18.0 0.00 0.00 0.00 5 1019.6
20260509192221 74 306 5.0 16.0 0.00 0.00 0.00 4 1019.6
20260509191714 76 297 9.0 16.0 0.00 0.00 0.00 3 1019.6
20260509191232 75 297 8.0 11.0 0.00 0.00 0.00 4 1019.5
20260509190726 74 292 2.0 10.0 0.00 0.00 0.00 6 1019.5
20260509190222 75 292 6.0 10.0 0.00 0.00 0.00 8 1019.5
20260509185735 72 292 5.0 18.0 0.00 0.00 0.00 6 1019.5
20260509185227 74 289 3.0 18.0 0.00 0.00 0.00 7 1019.6
20260509184741 74 294 8.0 13.0 0.00 0.00 0.00 5 1019.6
20260509184254 73 312 5.0 10.0 0.00 0.00 0.00 8 1019.7
20260509183727 74 313 5.0 9.0 0.00 0.00 0.00 8 1019.7
20260509183221 73 313 4.0 11.0 0.00 0.00 0.00 8 1019.7
20260509182715 74 313 5.0 12.0 0.00 0.00 0.00 7 1019.8
20260509182233 73 313 6.0 13.0 0.00 0.00 0.00 8 1019.8
20260509181727 73 309 6.0 13.0 0.00 0.00 0.00 7 1019.7
20260509181221 73 333 5.0 10.0 0.00 0.00 0.00 9 1019.8
20260509180715 71 333 6.0 10.0 0.00 0.00 0.00 9 1019.8
20260509180230 70 333 3.0 11.0 0.00 0.00 0.00 8 1019.9
20260509175724 71 333 6.0 11.0 0.00 0.00 0.00 8 1019.8
20260509175217 71 342 4.0 10.0 0.00 0.00 0.00 8 1019.7
20260509174715 72 342 5.0 9.0 0.00 0.00 0.00 9 1019.8
20260509174250 71 342 4.0 6.0 0.00 0.00 0.00 9 1019.8
20260509173216 72 342 5.0 14.0 0.00 0.00 0.00 9 1020.0
20260509172730 72 342 7.0 14.0 0.00 0.00 0.00 12 1020.0
20260509172224 70 360 3.0 11.0 0.00 0.00 0.00 11 1020.0
20260509171738 69 360 4.0 11.0 0.00 0.00 0.00 11 1020.1
20260509171231 70 360 6.0 11.0 0.00 0.00 0.00 11 1020.1
20260509170725 72 26 7.0 10.0 0.00 0.00 0.00 8 1020.1
20260509170221 71 46 0.0 6.0 0.00 0.00 0.00 11 1020.0
20260509165717 70 46 2.0 6.0 0.00 0.00 0.00 12 1020.0
20260509165231 69 46 3.0 12.0 0.00 0.00 0.00 12 1020.1
20260509164725 70 46 4.0 12.0 0.00 0.00 0.00 12 1020.1
20260509164219 69 47 2.0 9.0 0.00 0.00 0.00 12 1020.0
20260509163733 70 47 4.0 9.0 0.00 0.00 0.00 14 1020.0
20260509163227 70 47 3.0 7.0 0.00 0.00 0.00 13 1020.1
20260509162721 70 47 3.0 7.0 0.00 0.00 0.00 13 1020.1
20260509162219 69 47 4.0 7.0 0.00 0.00 0.00 14 1020.0
20260509161733 69 47 4.0 9.0 0.00 0.00 0.00 13 1020.1
20260509161227 69 47 5.0 9.0 0.00 0.00 0.00 14 1020.0
20260509160741 69 47 6.0 9.0 0.00 0.00 0.00 15 1020.1
20260509160235 69 47 6.0 9.0 0.00 0.00 0.00 15 1020.0
20260509155728 68 47 4.0 11.0 0.00 0.00 0.00 16 1020.0
20260509155222 68 47 7.0 11.0 0.00 0.00 0.00 16 1020.1
20260509154716 68 47 4.0 10.0 0.00 0.00 0.00 16 1020.2
20260509154230 68 47 4.0 10.0 0.00 0.00 0.00 19 1020.2
20260509153728 67 47 1.0 9.0 0.00 0.00 0.00 18 1020.2
20260509153222 67 47 5.0 9.0 0.00 0.00 0.00 16 1020.2
20260509152716 66 47 3.0 10.0 0.00 0.00 0.00 16 1020.2
20260509152230 66 47 6.0 10.0 0.00 0.00 0.00 19 1020.2
20260509151725 66 47 4.0 10.0 0.00 0.00 0.00 17 1020.0
20260509151219 66 47 6.0 9.0 0.00 0.00 0.00 17 1020.0
20260509150732 66 47 4.0 9.0 0.00 0.00 0.00 18 1019.9
20260509150228 65 47 6.0 11.0 0.00 0.00 0.00 19 1019.8
20260509145725 65 47 5.0 11.0 0.00 0.00 0.00 19 1019.9
20260509145219 64 58 6.0 11.0 0.00 0.00 0.00 22 1019.8
20260509144733 64 61 6.0 11.0 0.00 0.00 0.00 21 1019.8
20260509144227 64 81 5.0 10.0 0.00 0.00 0.00 22 1019.7
20260509143720 63 82 7.0 10.0 0.00 0.00 0.00 22 1019.7
20260509143215 63 96 5.0 10.0 0.00 0.00 0.00 21 1019.5
20260509142728 62 109 3.0 10.0 0.00 0.00 0.00 24 1019.4
20260509142253 62 109 6.0 10.0 0.00 0.00 0.00 23 1019.4
20260509141727 62 113 5.0 7.0 0.00 0.00 0.00 24 1019.5
20260509141221 61 114 3.0 7.0 0.00 0.00 0.00 24 1019.3
20260509140715 61 114 1.0 4.0 0.00 0.00 0.00 24 1019.3
20260509140230 59 114 1.0 3.0 0.00 0.00 0.00 29 1019.4
20260509135724 59 114 1.0 3.0 0.00 0.00 0.00 29 1019.4
20260509135223 58 113 0.0 6.0 0.00 0.00 0.00 29 1019.3
20260509134715 58 114 2.0 6.0 0.00 0.00 0.00 29 1019.3
20260509134228 58 114 3.0 6.0 0.00 0.00 0.00 28 1019.3
20260509133722 56 114 1.0 4.0 0.00 0.00 0.00 31 1019.1
20260509133216 54 114 2.0 3.0 0.00 0.00 0.00 34 1019.1
20260509132730 53 114 1.0 3.0 0.00 0.00 0.00 36 1019.1
20260509132224 54 114 0.0 6.0 0.00 0.00 0.00 37 1019.0
20260509131717 54 114 2.0 6.0 0.00 0.00 0.00 32 1019.0
20260509131216 51 114 1.0 4.0 0.00 0.00 0.00 38 1018.9
20260509130729 52 114 0.0 6.0 0.00 0.00 0.00 35 1018.8
20260509130225 51 114 1.0 6.0 0.00 0.00 0.00 36 1018.8
20260509125718 50 114 2.0 6.0 0.00 0.00 0.00 37 1018.6
20260509125233 51 114 0.0 3.0 0.00 0.00 0.00 37 1018.6
20260509124727 51 114 1.0 3.0 0.00 0.00 0.00 36 1018.5
20260509124240 50 114 0.0 3.0 0.00 0.00 0.00 36 1018.4
20260509123733 51 114 1.0 4.0 0.00 0.00 0.00 35 1018.3
20260509123231 52 114 3.0 6.0 0.00 0.00 0.00 31 1018.2
20260509122725 51 114 1.0 7.0 0.00 0.00 0.00 32 1018.1
20260509122219 51 114 4.0 7.0 0.00 0.00 0.00 34 1018.0
20260509121733 50 114 3.0 4.0 0.00 0.00 0.00 36 1017.9
20260509121227 51 114 1.0 7.0 0.00 0.00 0.00 33 1017.9
20260509120721 52 114 1.0 7.0 0.00 0.00 0.00 32 1017.9
20260509120217 52 114 3.0 7.0 0.00 0.00 0.00 32 1017.7
20260509115751 54 114 1.0 6.0 0.00 0.00 0.00 29 1017.7
20260509115224 53 114 2.0 4.0 0.00 0.00 0.00 29 1017.6
20260509114722 54 114 2.0 6.0 0.00 0.00 0.00 28 1017.6
20260509114238 53 114 2.0 6.0 0.00 0.00 0.00 30 1017.4
20260509113731 53 114 2.0 7.0 0.00 0.00 0.00 31 1017.4
20260509113245 53 114 3.0 7.0 0.00 0.00 0.00 29 1017.4
20260509112718 53 114 3.0 7.0 0.00 0.00 0.00 31 1017.3
20260509112233 54 114 2.0 4.0 0.00 0.00 0.00 27 1017.3
20260509111221 55 114 2.0 7.0 0.00 0.00 0.00 26 1017.1
20260509110719 54 114 2.0 7.0 0.00 0.00 0.00 27 1016.9
20260509110234 55 114 5.0 9.0 0.00 0.00 0.00 26 1016.7
20260509105747 56 114 3.0 9.0 0.00 0.00 0.00 27 1016.8
20260509105219 56 114 6.0 10.0 0.00 0.00 0.00 26 1016.7
20260509104733 56 114 6.0 11.0 0.00 0.00 0.00 26 1016.8
20260509104226 56 113 9.0 11.0 0.00 0.00 0.00 25 1016.7
20260509103720 55 113 6.0 9.0 0.00 0.00 0.00 27 1016.7
20260509103214 55 113 5.0 8.0 0.00 0.00 0.00 28 1016.7
20260509102728 56 113 3.0 8.0 0.00 0.00 0.00 27 1016.7
20260509102226 56 113 4.0 8.0 0.00 0.00 0.00 25 1016.7
20260509101720 55 113 4.0 6.0 0.00 0.00 0.00 27 1016.7
20260509101234 55 113 3.0 4.0 0.00 0.00 0.00 26 1016.6
20260509100727 56 113 3.0 6.0 0.00 0.00 0.00 26 1016.6
20260509100223 55 113 4.0 6.0 0.00 0.00 0.00 27 1016.7
20260509095716 55 113 3.0 4.0 0.00 0.00 0.00 25 1016.6
20260509095231 55 113 3.0 4.0 0.00 0.00 0.00 25 1016.6
20260509094745 55 113 3.0 8.0 0.00 0.00 0.00 27 1016.6
20260509094222 55 113 2.0 10.0 0.00 0.00 0.00 26 1016.6
20260509093716 57 113 5.0 11.0 0.00 0.00 0.00 24 1016.6
20260509093229 58 113 8.0 11.0 0.00 0.00 0.00 23 1016.6
20260509092723 58 117 3.0 9.0 0.00 0.00 0.00 23 1016.4
20260509092217 57 117 7.0 12.0 0.00 0.00 0.00 24 1016.2
20260509091731 57 117 8.0 13.0 0.00 0.00 0.00 24 1016.1
20260509091245 57 117 11.0 13.0 0.00 0.00 0.00 24 1016.0
20260509090738 57 117 11.0 13.0 0.00 0.00 0.00 25 1015.9
20260509090233 56 117 9.0 11.0 0.00 0.00 0.00 25 1015.9
20260509085730 56 117 10.0 11.0 0.00 0.00 0.00 24 1016.0
20260509085243 56 117 8.0 10.0 0.00 0.00 0.00 24 1016.0
20260509084737 56 117 8.0 10.0 0.00 0.00 0.00 25 1016.0
20260509084230 56 117 8.0 10.0 0.00 0.00 0.00 24 1016.0
20260509083723 56 117 7.0 9.0 0.00 0.00 0.00 24 1016.1
20260509083217 56 117 7.0 10.0 0.00 0.00 0.00 23 1016.1
20260509082731 57 117 7.0 10.0 0.00 0.00 0.00 23 1016.2
20260509082225 56 117 9.0 10.0 0.00 0.00 0.00 24 1016.1
20260509081719 54 117 5.0 8.0 0.00 0.00 0.00 26 1016.1
20260509081238 55 117 3.0 7.0 0.00 0.00 0.00 26 1016.2
20260509080731 56 117 4.0 7.0 0.00 0.00 0.00 26 1016.1
20260509080227 55 117 3.0 6.0 0.00 0.00 0.00 25 1016.2
20260509075719 56 117 4.0 6.0 0.00 0.00 0.00 24 1016.1
20260509075213 55 117 3.0 4.0 0.00 0.00 0.00 27 1016.1
20260509074221 56 117 1.0 2.0 0.00 0.00 0.00 25 1016.0
20260509073715 56 117 0.0 2.0 0.00 0.00 0.00 26 1016.0
20260509073229 56 117 1.0 2.0 0.00 0.00 0.00 24 1016.0
20260509072726 56 117 0.0 2.0 0.00 0.00 0.00 26 1016.0
20260509072220 57 117 0.0 6.0 0.00 0.00 0.00 24 1015.9
20260509071754 59 117 2.0 8.0 0.00 0.00 0.00 20 1015.9
20260509071226 60 117 2.0 10.0 0.00 0.00 0.00 18 1015.8
20260509070720 60 117 8.0 10.0 0.00 0.00 0.00 18 1015.8
20260509070214 60 117 6.0 11.0 0.00 0.00 0.00 19 1015.8
20260509065728 62 117 6.0 11.0 0.00 0.00 0.00 17 1015.8
20260509065222 62 117 8.0 11.0 0.00 0.00 0.00 16 1015.7
20260509064716 62 117 5.0 14.0 0.00 0.00 0.00 16 1015.7
20260509064215 61 117 6.0 14.0 0.00 0.00 0.00 18 1015.7
20260509063729 61 117 11.0 15.0 0.00 0.00 0.00 19 1015.5
20260509063223 62 117 11.0 15.0 0.00 0.00 0.00 18 1015.5
20260509062717 61 115 11.0 14.0 0.00 0.00 0.00 18 1015.5
20260509062231 62 112 10.0 13.0 0.00 0.00 0.00 19 1015.5
20260509061724 62 112 11.0 13.0 0.00 0.00 0.00 18 1015.6
20260509061218 62 112 10.0 14.0 0.00 0.00 0.00 18 1015.5
20260509060732 63 112 10.0 14.0 0.00 0.00 0.00 18 1015.5
20260509060231 63 110 11.0 14.0 0.00 0.00 0.00 18 1015.5
20260509055744 62 109 10.0 13.0 0.00 0.00 0.00 18 1015.5
20260509055218 63 109 9.0 12.0 0.00 0.00 0.00 18 1015.5
20260509054731 63 109 9.0 14.0 0.00 0.00 0.00 18 1015.5
20260509054226 63 109 10.0 14.0 0.00 0.00 0.00 17 1015.5
20260509053720 63 108 10.0 13.0 0.00 0.00 0.00 17 1015.4
20260509053254 64 108 10.0 13.0 0.00 0.00 0.00 17 1015.4
20260509052726 64 107 10.0 13.0 0.00 0.00 0.00 17 1015.4
20260509052219 64 107 8.0 14.0 0.00 0.00 0.00 16 1015.4
20260509051717 64 107 10.0 14.0 0.00 0.00 0.00 16 1015.4
20260509051231 65 101 10.0 13.0 0.00 0.00 0.00 16 1015.4
20260509050725 65 99 8.0 13.0 0.00 0.00 0.00 15 1015.4
20260509050220 65 99 10.0 13.0 0.00 0.00 0.00 16 1015.4
20260509045733 65 93 10.0 13.0 0.00 0.00 0.00 16 1015.4
20260509045227 65 93 8.0 12.0 0.00 0.00 0.00 16 1015.4
20260509044721 65 93 10.0 12.0 0.00 0.00 0.00 16 1015.4
20260509044235 66 88 8.0 12.0 0.00 0.00 0.00 16 1015.4
20260509043749 65 88 9.0 12.0 0.00 0.00 0.00 15 1015.4
20260509043225 65 85 9.0 11.0 0.00 0.00 0.00 16 1015.4
20260509042719 66 84 9.0 12.0 0.00 0.00 0.00 15 1015.4
20260509042233 65 82 9.0 12.0 0.00 0.00 0.00 15 1015.4
20260509041727 65 77 9.0 11.0 0.00 0.00 0.00 15 1015.4
20260509041221 65 74 8.0 11.0 0.00 0.00 0.00 15 1015.4
20260509040715 64 74 9.0 12.0 0.00 0.00 0.00 17 1015.4
20260509040230 64 74 7.0 12.0 0.00 0.00 0.00 16 1015.4
20260509035723 65 71 8.0 11.0 0.00 0.00 0.00 16 1015.5
20260509035221 65 69 8.0 12.0 0.00 0.00 0.00 16 1015.5
20260509034715 64 67 8.0 12.0 0.00 0.00 0.00 17 1015.4
20260509034229 64 63 9.0 12.0 0.00 0.00 0.00 18 1015.4
20260509033743 64 50 8.0 12.0 0.00 0.00 0.00 18 1015.4
20260509033216 64 42 8.0 11.0 0.00 0.00 0.00 17 1015.3
20260509032730 64 27 6.0 9.0 0.00 0.00 0.00 17 1015.2
20260509032246 64 27 4.0 10.0 0.00 0.00 0.00 18 1015.2
20260509031718 65 27 7.0 10.0 0.00 0.00 0.00 15 1015.1
20260509031216 65 20 6.0 9.0 0.00 0.00 0.00 14 1015.1
20260509030729 66 17 5.0 6.0 0.00 0.00 0.00 14 1015.1
20260509030225 65 17 5.0 7.0 0.00 0.00 0.00 16 1015.0
20260509025719 65 17 3.0 4.0 0.00 0.00 0.00 16 1015.0
20260509025233 65 17 2.0 5.0 0.00 0.00 0.00 16 1015.0
20260509024747 66 17 2.0 6.0 0.00 0.00 0.00 14 1015.0
20260509024240 68 17 5.0 6.0 0.00 0.00 0.00 13 1015.0
20260509023733 68 17 5.0 6.0 0.00 0.00 0.00 12 1014.9
20260509023227 69 17 4.0 8.0 0.00 0.00 0.00 12 1014.9
20260509022725 70 17 5.0 8.0 0.00 0.00 0.00 12 1014.9
20260509022219 70 17 4.0 5.0 0.00 0.00 0.00 11 1014.9
20260509021714 71 17 2.0 8.0 0.00 0.00 0.00 10 1014.8
20260509021228 72 31 4.0 8.0 0.00 0.00 0.00 9 1014.8
20260509020722 72 31 5.0 8.0 0.00 0.00 0.00 10 1014.7
20260509020238 73 31 2.0 5.0 0.00 0.00 0.00 10 1014.7
20260509015730 73 31 3.0 11.0 0.00 0.00 0.00 9 1014.7
20260509014723 74 23 7.0 10.0 0.00 0.00 0.00 8 1014.6
20260509014238 74 19 4.0 10.0 0.00 0.00 0.00 8 1014.6
20260509013730 75 19 5.0 9.0 0.00 0.00 0.00 8 1014.6
20260509013224 75 20 4.0 7.0 0.00 0.00 0.00 7 1014.5
20260509012717 76 20 3.0 8.0 0.00 0.00 0.00 7 1014.6